[[{"header":{"parameterUnit":"m.s-1","parameterCategory":1,"la1":30.2991,"la2":30.254,"lo1":-89.0895,"lo2":-89.0444,"dy":0.0017,"dx":0.0017,"nx":28,"ny":28,"refTime":"2024-09-03T03:00:00:Z","depth":0,"parameterNumber":2,"parameterNumberName":"U-component_of_WINDS"},"data":[0,0,0,0,0,0,0,0,0,0,0,0,0,0,0,0,0,0,0,0,0,0,0,0,0,0,0,0,0,0,0,0,0,0,0,0,0,0,0,0,0,0,0,0,0,0,0,0,0,0,0,0,0,0,0,0,0,0,-2.7502,-2.7502,0,-2.7474,-2.7474,-2.7474,-2.7399,-2.7398,-2.7396,-2.7395,-2.7369,-2.737,-2.7371,0,0,0,0,0,0,0,0,0,0,0,0,0,-2.7497,-2.7497,-2.7502,-2.7502,-2.7502,-2.7474,-2.7474,-2.7473,-2.74,-2.7398,-2.7396,-2.7394,-2.7369,-2.737,-2.7371,0,0,0,0,0,0,0,0,0,0,0,0,0,-2.7487,-2.7498,-2.7502,-2.7461,-2.7457,-2.7474,-2.7474,-2.7473,-2.74,-2.7398,-2.7395,-2.7393,-2.7369,-2.737,-2.7371,-2.7426,0,0,-2.7375,-2.7375,0,0,0,0,0,0,0,0,-2.7488,-2.7488,-2.7468,-2.7464,-2.746,-2.7438,-2.7463,-2.7458,-2.7401,-2.7422,-2.7395,-2.7392,-2.7394,-2.7393,-2.7393,-2.7425,-2.7424,-2.7375,-2.7376,-2.7376,-2.7376,0,0,0,0,0,0,0,-2.7489,-2.7488,-2.7491,-2.7468,-2.7463,-2.7446,-2.7442,-2.7461,-2.7422,-2.742,-2.7414,-2.7412,-2.7392,-2.7392,-2.7392,-2.7424,-2.7375,-2.7376,-2.7377,-2.7377,-2.7504,-2.7507,0,0,0,0,0,0,-2.7495,-2.7489,-2.7492,-2.749,-2.7468,-2.7448,-2.7444,-2.7447,-2.7421,-2.7415,-2.7414,-2.7409,-2.7391,-2.7391,-2.7391,-2.7457,-2.7376,-2.7377,-2.7378,-2.7502,-2.7505,-2.7508,0,0,0,0,0,0,-2.7495,-2.7496,-2.7493,-2.7488,-2.7487,-2.7451,-2.7456,-2.7448,-2.7448,-2.7417,-2.741,-2.7422,-2.7389,-2.7389,-2.7419,-2.7455,-2.7378,-2.7379,-2.7498,-2.7503,-2.7506,-2.7587,0,0,0,0,0,0,-2.7495,-2.7496,-2.7515,-2.7489,-2.7487,-2.752,-2.7458,-2.7449,-2.745,-2.7443,-2.7422,-2.7417,-2.7387,-2.7417,-2.742,-2.7455,-2.738,-2.7495,-2.75,-2.7505,-2.7581,-2.7594,-2.7604,0,0,0,0,0,-2.7495,-2.7539,-2.7517,-2.7517,-2.751,-2.7522,-2.7521,-2.7486,-2.7453,-2.7474,-2.7454,-2.7417,-2.745,-2.7421,-2.7423,-2.7459,-2.7493,-2.7499,-2.7505,-2.7576,-2.7591,-2.7604,0,0,0,0,0,0,-2.757,-2.7535,-2.751,-2.7546,-2.7538,-2.751,-2.7534,-2.7502,-2.7504,-2.7497,-2.7454,-2.745,-2.7487,-2.7476,-2.7444,-2.7514,-2.7466,-2.7472,-2.7519,-2.7533,-2.7545,-2.7547,-2.7381,0,0,0,0,0,-2.7591,-2.7603,-2.7571,-2.7607,-2.7604,-2.757,-2.7574,-2.7548,-2.7538,-2.7534,-2.7516,-2.7509,-2.7518,-2.7525,-2.7531,-2.7579,-2.7576,-2.7606,-2.7617,-2.7626,-2.7633,-2.7661,-2.7675,-2.7527,-2.7527,-2.7527,0,0,-2.7634,-2.7617,-2.7626,-2.7622,-2.7612,-2.7627,-2.7567,-2.7584,-2.7596,-2.7537,-2.7564,-2.7551,-2.7541,-2.7581,-2.7598,-2.7573,-2.7673,-2.7634,-2.7642,-2.7643,-2.7669,-2.7683,-2.7696,-2.7531,-2.7531,-2.753,0,0,-2.7721,-2.7707,-2.7737,-2.7729,-2.7715,-2.7693,-2.7701,-2.7678,-2.7667,-2.7693,-2.7651,-2.7664,-2.768,-2.7675,-2.7675,-2.7764,-2.7731,-2.7767,-2.7827,-2.7855,-2.7867,-2.7877,-2.7911,-2.7924,-2.7774,-2.7774,-2.7774,0,-2.7777,-2.7795,-2.7756,-2.7777,-2.7778,-2.7725,-2.7756,-2.7751,-2.7741,-2.7743,-2.7716,-2.7736,-2.7725,-2.7765,-2.7787,-2.7788,-2.7797,-2.7769,-2.7868,-2.7878,-2.7887,-2.7919,-2.7932,-2.7779,-2.7778,-2.7778,-2.7777,0,-2.7866,-2.788,-2.7906,-2.7898,-2.7901,-2.7927,-2.7894,-2.7903,-2.7877,-2.7859,-2.7889,-2.7874,-2.7878,-2.7886,-2.786,-2.7923,-2.7909,-2.7875,-2.7826,-2.7906,-2.7936,-2.7948,-2.7785,-2.7784,-2.7782,-2.7781,0,0,-2.7998,-2.7969,-2.7979,-2.7976,-2.7959,-2.797,-2.7995,-2.7999,-2.8009,-2.8004,-2.8026,-2.8042,-2.8012,-2.8012,-2.7986,-2.8011,-2.8086,-2.7974,-2.7974,-2.7998,-2.8158,-2.8185,-2.8199,-2.8064,-2.8066,-2.8068,-2.816,0,-2.8081,-2.8121,-2.8088,-2.8135,-2.8149,-2.8101,-2.8123,-2.8117,-2.8101,-2.8113,-2.8096,-2.8109,-2.8066,-2.8067,-2.8089,-2.8072,-2.8118,-2.8065,-2.8087,-2.8088,-2.8092,-2.8214,-2.8242,-2.8329,-2.8171,-2.8173,-2.8174,0,-2.8183,-2.8183,-2.8232,-2.8215,-2.8219,-2.824,-2.8242,-2.8253,-2.8246,-2.8233,-2.8235,-2.8204,-2.823,-2.8182,-2.822,-2.8185,-2.8192,-2.8186,-2.8188,-2.819,-2.8137,-2.8222,-2.8355,-2.837,-2.8192,-2.819,-2.8189,0,-2.8277,-2.829,-2.8321,-2.832,-2.83,-2.8316,-2.8309,-2.8299,-2.8304,-2.8307,-2.8311,-2.8317,-2.8321,-2.8328,-2.8301,-2.8268,-2.8343,-2.8292,-2.8336,-2.8337,-2.8354,-2.8354,-2.8493,-2.8357,-2.8356,-2.8356,-2.8356,0,-2.8374,-2.8406,-2.8364,-2.8383,-2.8419,-2.8382,-2.8419,-2.8407,-2.84,-2.8418,-2.8377,-2.8395,-2.8358,-2.8373,-2.8352,-2.8389,-2.839,-2.8383,-2.8377,-2.8387,-2.8388,-2.8392,-2.8386,-2.836,-2.8359,-2.8358,-2.8358,0,-2.8485,-2.8457,-2.8489,-2.8468,-2.8464,-2.8491,-2.8474,-2.8493,-2.8476,-2.85,-2.8503,-2.8476,-2.8493,-2.8466,-2.848,-2.8466,-2.8517,-2.8501,-2.8519,-2.8515,-2.8561,-2.8558,-2.8709,-2.8728,-2.8578,-2.858,-2.8581,0,-2.8549,-2.8573,-2.8555,-2.8564,-2.8559,-2.8574,-2.858,-2.8546,-2.8554,-2.8549,-2.857,-2.8583,-2.8591,-2.8621,-2.8604,-2.8615,-2.86,-2.8652,-2.8602,-2.8612,-2.8604,-2.8603,-2.8607,-2.8663,-2.8665,-2.8666,-2.8668,0,-2.8667,-2.8653,-2.8662,-2.8668,-2.8676,-2.8679,-2.8679,-2.8689,-2.8654,-2.8665,-2.8681,-2.8688,-2.8703,-2.8718,-2.8725,-2.872,-2.869,-2.8684,-2.8695,-2.8706,-2.8717,-2.8714,-2.855,-2.8681,-2.8679,-2.8678,-2.8678,-2.8677,-2.8758,-2.8778,-2.8769,-2.8782,-2.8779,-2.8781,-2.8798,-2.8783,-2.8796,-2.8804,-2.8784,-2.8807,-2.8803,-2.8809,-2.8808,-2.8827,-2.8804,-2.8819,-2.8824,-2.8829,-2.8837,-2.8713,-2.8828,-2.8827,-2.8827,-2.8827,-2.8826,0,-2.8875,-2.8868,-2.888,-2.8882,-2.8893,-2.8862,-2.8862,-2.8874,-2.8893,-2.8892,-2.8901,-2.8922,-2.8937,-2.8923,-2.8936,-2.8954,-2.8941,-2.8959,-2.8958,-2.8958,-2.8855,-2.8845,-2.8969,-2.8969,-2.8969,-2.8969,-2.8969,-2.8969,-2.8938,-2.8971,-2.8957,-2.899,-2.8983,-2.9003,-2.9006,-2.9009,-2.9008,-2.9033,-2.9045,-2.9035,-2.9029,-2.9042,-2.9056,-2.9051,-2.9059,-2.9083,-2.9074,-2.8978,-2.8964,-2.8951,-2.8942,-2.9084,-2.9084,-2.9175,-2.9176,-2.9177]},{"header":{"parameterUnit":"m.s-1","parameterCategory":1,"la1":30.2991,"la2":30.254,"lo1":-89.0895,"lo2":-89.0444,"dy":0.0017,"dx":0.0017,"nx":28,"ny":28,"refTime":"2024-09-03T03:00:00:Z","depth":0,"parameterNumber":3,"parameterNumberName":"V-component_of_WINDS"},"data":[0,0,0,0,0,0,0,0,0,0,0,0,0,0,0,0,0,0,0,0,0,0,0,0,0,0,0,0,0,0,0,0,0,0,0,0,0,0,0,0,0,0,0,0,0,0,0,0,0,0,0,0,0,0,0,0,0,0,1.1456,1.1457,0,1.1515,1.1516,1.1517,1.1574,1.1574,1.1575,1.1576,1.1633,1.1634,1.1635,0,0,0,0,0,0,0,0,0,0,0,0,0,1.139,1.1391,1.1456,1.1457,1.1458,1.1515,1.1516,1.1517,1.1574,1.1574,1.1575,1.1576,1.1633,1.1634,1.1635,0,0,0,0,0,0,0,0,0,0,0,0,0,1.1431,1.1391,1.1456,1.1493,1.1497,1.1515,1.1516,1.1517,1.1573,1.1574,1.1576,1.1577,1.1632,1.1634,1.1635,1.162,0,0,1.1639,1.1639,0,0,0,0,0,0,0,0,1.1428,1.1433,1.1487,1.1491,1.1495,1.1538,1.1514,1.1551,1.1573,1.1544,1.1576,1.1577,1.16,1.1604,1.1613,1.1623,1.1625,1.1639,1.164,1.164,1.164,0,0,0,0,0,0,0,1.1426,1.1431,1.148,1.1488,1.1493,1.1506,1.1513,1.1521,1.1565,1.1547,1.1551,1.1558,1.1603,1.1611,1.1615,1.1626,1.1639,1.164,1.1641,1.1641,1.1625,1.1624,0,0,0,0,0,0,1.1418,1.1428,1.1478,1.1481,1.1464,1.1506,1.1514,1.1523,1.1565,1.1573,1.1557,1.156,1.1609,1.1613,1.1617,1.1601,1.164,1.1641,1.1642,1.1627,1.1625,1.1624,0,0,0,0,0,0,1.1416,1.1421,1.1475,1.1456,1.1464,1.1506,1.1516,1.1524,1.1533,1.1573,1.1581,1.1557,1.161,1.1615,1.1619,1.1604,1.1642,1.1643,1.1628,1.1626,1.1624,1.157,0,0,0,0,0,0,1.1414,1.142,1.1416,1.1456,1.1465,1.1477,1.1515,1.1524,1.1535,1.154,1.1576,1.1583,1.1611,1.1617,1.162,1.1606,1.1644,1.1629,1.1627,1.1625,1.1573,1.1566,1.1561,0,0,0,0,0,1.1411,1.1398,1.1415,1.1421,1.146,1.1476,1.1481,1.1515,1.1534,1.1529,1.1554,1.1581,1.1605,1.1616,1.1621,1.1607,1.163,1.1628,1.1625,1.1576,1.1568,1.1561,0,0,0,0,0,0,1.1354,1.1404,1.1424,1.1423,1.1445,1.1486,1.1481,1.1506,1.1522,1.1526,1.1567,1.1574,1.1573,1.1591,1.1602,1.1594,1.1622,1.162,1.1582,1.1575,1.1569,1.1564,1.1645,0,0,0,0,0,1.1342,1.1352,1.1394,1.1389,1.1399,1.1438,1.1446,1.1471,1.1495,1.1504,1.153,1.1551,1.1564,1.1571,1.1584,1.1577,1.1584,1.1569,1.1563,1.1558,1.1555,1.1551,1.1544,1.1615,1.1615,1.1615,0,0,1.1316,1.1344,1.1348,1.1379,1.1398,1.1406,1.1445,1.1452,1.1458,1.1505,1.1509,1.1529,1.1556,1.1553,1.1553,1.1568,1.1537,1.1554,1.155,1.155,1.1547,1.154,1.1534,1.1614,1.1614,1.1614,0,0,1.1272,1.1295,1.1293,1.1313,1.1343,1.1368,1.1368,1.1405,1.142,1.1426,1.146,1.1468,1.1489,1.1506,1.1517,1.148,1.1504,1.1483,1.145,1.1445,1.1439,1.1435,1.1419,1.1414,1.1481,1.148,1.148,0,1.1236,1.125,1.1289,1.1294,1.1305,1.1349,1.1346,1.1363,1.1395,1.1402,1.1418,1.1445,1.1466,1.1467,1.1458,1.1466,1.1466,1.1478,1.1437,1.1433,1.1429,1.1415,1.1409,1.1478,1.1478,1.1478,1.1478,0,1.1203,1.1212,1.1207,1.1238,1.1249,1.125,1.1288,1.1295,1.1318,1.1342,1.1346,1.1373,1.1393,1.1395,1.1418,1.1399,1.1407,1.143,1.1458,1.1418,1.1406,1.1401,1.1473,1.1474,1.1475,1.1476,0,0,1.1124,1.1176,1.1173,1.1187,1.1224,1.1231,1.1234,1.1254,1.1258,1.1279,1.1281,1.1297,1.1318,1.1331,1.1357,1.1353,1.1319,1.1376,1.1377,1.1363,1.1298,1.1279,1.1273,1.1337,1.1336,1.1336,1.1295,0,1.1085,1.1093,1.1127,1.1124,1.1132,1.1174,1.1176,1.1198,1.122,1.123,1.1254,1.1265,1.1293,1.13,1.1299,1.1324,1.1307,1.1327,1.1337,1.1337,1.1327,1.1266,1.1247,1.1207,1.1291,1.129,1.129,0,1.104,1.1058,1.1056,1.1092,1.1096,1.1098,1.1118,1.1127,1.1152,1.1169,1.1183,1.1212,1.1216,1.1243,1.1248,1.1261,1.1267,1.128,1.128,1.128,1.1309,1.1263,1.1196,1.1189,1.1283,1.1283,1.1284,0,1.098,1.1004,1.1006,1.1017,1.1059,1.1059,1.1076,1.1103,1.1112,1.113,1.1136,1.1153,1.1162,1.1175,1.1207,1.1225,1.1208,1.1238,1.122,1.1219,1.1212,1.1212,1.1143,1.122,1.122,1.122,1.122,0,1.0931,1.0928,1.0979,1.098,1.0977,1.1017,1.1012,1.1034,1.1057,1.1062,1.1099,1.1103,1.1146,1.1154,1.1179,1.1178,1.1183,1.1195,1.1201,1.119,1.1188,1.1193,1.1196,1.1219,1.1219,1.1219,1.1219,0,1.0863,1.0898,1.0902,1.0941,1.0951,1.0947,1.098,1.0982,1.1007,1.1012,1.1016,1.1054,1.1066,1.11,1.112,1.1137,1.1127,1.1141,1.1118,1.1122,1.1101,1.1102,1.1031,1.1023,1.1107,1.1106,1.1105,0,1.0828,1.0826,1.0866,1.0872,1.0888,1.0898,1.0907,1.0947,1.0955,1.0984,1.0981,1.0996,1.1009,1.1025,1.1054,1.107,1.1082,1.1057,1.1085,1.1073,1.1079,1.1078,1.1077,1.105,1.1049,1.1048,1.1047,0,1.0763,1.078,1.0793,1.0812,1.0823,1.084,1.0858,1.0861,1.0905,1.0912,1.0925,1.0935,1.0956,1.0969,1.0989,1.1005,1.1032,1.1038,1.1034,1.1022,1.1008,1.1013,1.1099,1.1039,1.104,1.1041,1.1041,1.1041,1.0709,1.0709,1.0736,1.0749,1.0768,1.0784,1.0787,1.0813,1.0824,1.0844,1.0867,1.0876,1.0901,1.093,1.0945,1.0952,1.0967,1.0962,1.096,1.0958,1.0952,1.1009,1.0956,1.0957,1.0957,1.0957,1.0957,0,1.0643,1.0663,1.0675,1.07,1.071,1.0737,1.0759,1.0765,1.0773,1.0794,1.0807,1.082,1.0833,1.0864,1.088,1.0879,1.0892,1.0882,1.0881,1.0884,1.0939,1.094,1.0871,1.0871,1.0871,1.0871,1.0871,1.0871,1.061,1.0611,1.0631,1.0641,1.0661,1.0671,1.0681,1.0696,1.0713,1.0727,1.0738,1.0758,1.0783,1.0801,1.0813,1.0822,1.0825,1.081,1.0822,1.0872,1.088,1.0888,1.0889,1.0811,1.0811,1.0767,1.0766,1.0766]}]]